| time (UTC) | temp F | wind direction | speed MPH | gust MPH | rain 1hr in | rain 24hr in | rain mn in | humidity % | barometer mb |
| 20260906014205 | 55 | 294 | 1.0 | 2.0 | 0.00 | 0.00 | 0.00 | 82 | 1024.1 |
| 20260906013705 | 55 | 288 | 1.0 | 2.0 | 0.00 | 0.00 | 0.00 | 82 | 1024.2 |
| 20260906013205 | 55 | 298 | 0.0 | 0.0 | 0.00 | 0.00 | 0.00 | 82 | 1024.1 |
| 20260906012205 | 55 | 12 | 0.0 | 1.0 | 0.00 | 0.00 | 0.00 | 82 | 1024.0 |
| 20260906011705 | 56 | 12 | 0.0 | 1.0 | 0.00 | 0.00 | 0.00 | 82 | 1023.9 |
| 20260906011204 | 56 | 313 | 0.0 | 3.0 | 0.00 | 0.00 | 0.00 | 82 | 1023.9 |
| 20260906010704 | 56 | 313 | 1.0 | 3.0 | 0.00 | 0.00 | 0.00 | 81 | 1023.9 |
| 20260906010205 | 56 | 313 | 1.0 | 3.0 | 0.00 | 0.00 | 0.00 | 81 | 1023.9 |
| 20260906005704 | 56 | 63 | 1.0 | 2.0 | 0.00 | 0.00 | 0.00 | 81 | 1023.8 |
| 20260906005205 | 56 | 290 | 0.0 | 2.0 | 0.00 | 0.00 | 0.00 | 81 | 1023.8 |
| 20260906004205 | 56 | 290 | 0.0 | 3.0 | 0.00 | 0.00 | 0.00 | 81 | 1023.8 |
| 20260906003704 | 56 | 40 | 0.0 | 3.0 | 0.00 | 0.00 | 0.00 | 81 | 1023.9 |
| 20260906003205 | 56 | 43 | 0.0 | 2.0 | 0.00 | 0.00 | 0.00 | 80 | 1023.8 |
| 20260906002730 | 57 | 299 | 0.0 | 2.0 | 0.00 | 0.00 | 0.00 | 80 | 1023.8 |
| 20260906002205 | 57 | 296 | 0.0 | 2.0 | 0.00 | 0.00 | 0.00 | 80 | 1023.8 |
| 20260906001704 | 57 | 296 | 0.0 | 0.0 | 0.00 | 0.00 | 0.00 | 80 | 1023.8 |
| 20260906001205 | 57 | 346 | 0.0 | 0.0 | 0.00 | 0.00 | 0.00 | 80 | 1023.7 |
| 20260906000705 | 57 | 347 | 0.0 | 2.0 | 0.00 | 0.00 | 0.00 | 80 | 1023.7 |
| 20260906000205 | 57 | 344 | 0.0 | 2.0 | 0.00 | 0.00 | 0.00 | 80 | 1023.7 |
| 20260905235705 | 58 | 346 | 0.0 | 1.0 | 0.00 | 0.00 | 0.00 | 79 | 1023.7 |
| 20260905235205 | 58 | 248 | 0.0 | 1.0 | 0.00 | 0.00 | 0.00 | 79 | 1023.7 |
| 20260905234705 | 58 | 248 | 0.0 | 2.0 | 0.00 | 0.00 | 0.00 | 79 | 1023.6 |
| 20260905234205 | 58 | 249 | 0.0 | 2.0 | 0.00 | 0.00 | 0.00 | 79 | 1023.5 |
| 20260905233705 | 58 | 248 | 0.0 | 2.0 | 0.00 | 0.00 | 0.00 | 78 | 1023.5 |
| 20260905233204 | 58 | 289 | 0.0 | 1.0 | 0.00 | 0.00 | 0.00 | 78 | 1023.4 |
| 20260905232705 | 58 | 269 | 0.0 | 1.0 | 0.00 | 0.00 | 0.00 | 79 | 1023.4 |
| 20260905232204 | 58 | 269 | 0.0 | 1.0 | 0.00 | 0.00 | 0.00 | 77 | 1023.4 |
| 20260905231704 | 58 | 269 | 0.0 | 3.0 | 0.00 | 0.00 | 0.00 | 77 | 1023.3 |
| 20260905231204 | 59 | 269 | 1.0 | 5.0 | 0.00 | 0.00 | 0.00 | 76 | 1023.3 |
| 20260905230704 | 59 | 269 | 2.0 | 5.0 | 0.00 | 0.00 | 0.00 | 75 | 1023.2 |
| 20260905230205 | 60 | 281 | 1.0 | 5.0 | 0.00 | 0.00 | 0.00 | 73 | 1023.2 |
| 20260905225205 | 60 | 28 | 1.0 | 4.0 | 0.00 | 0.00 | 0.00 | 73 | 1023.1 |
| 20260905224704 | 60 | 45 | 2.0 | 4.0 | 0.00 | 0.00 | 0.00 | 73 | 1023.1 |
| 20260905224205 | 59 | 26 | 2.0 | 4.0 | 0.00 | 0.00 | 0.00 | 74 | 1023.1 |
| 20260905223704 | 59 | 38 | 1.0 | 4.0 | 0.00 | 0.00 | 0.00 | 75 | 1023.1 |
| 20260905222704 | 59 | 53 | 1.0 | 4.0 | 0.00 | 0.00 | 0.00 | 75 | 1023.2 |
| 20260905222205 | 59 | 44 | 0.0 | 1.0 | 0.00 | 0.00 | 0.00 | 76 | 1023.1 |
| 20260905221705 | 59 | 15 | 0.0 | 3.0 | 0.00 | 0.00 | 0.00 | 74 | 1023.0 |
| 20260905220704 | 60 | 15 | 1.0 | 3.0 | 0.00 | 0.00 | 0.00 | 72 | 1023.0 |
| 20260905215704 | 60 | 61 | 0.0 | 2.0 | 0.00 | 0.00 | 0.00 | 75 | 1023.1 |
| 20260905214704 | 60 | 77 | 1.0 | 2.0 | 0.00 | 0.00 | 0.00 | 75 | 1023.1 |
| 20260905214205 | 60 | 32 | 0.0 | 4.0 | 0.00 | 0.00 | 0.00 | 73 | 1022.8 |
| 20260905213705 | 61 | 335 | 1.0 | 4.0 | 0.00 | 0.00 | 0.00 | 73 | 1023.0 |
| 20260905213204 | 60 | 319 | 1.0 | 4.0 | 0.00 | 0.00 | 0.00 | 75 | 1022.7 |
| 20260905212205 | 60 | 62 | 0.0 | 0.0 | 0.00 | 0.00 | 0.00 | 77 | 1022.7 |
| 20260905211705 | 60 | 76 | 0.0 | 0.0 | 0.00 | 0.00 | 0.00 | 76 | 1022.7 |
| 20260905211205 | 60 | 76 | 0.0 | 2.0 | 0.00 | 0.00 | 0.00 | 76 | 1022.6 |
| 20260905210704 | 61 | 39 | 0.0 | 3.0 | 0.00 | 0.00 | 0.00 | 76 | 1022.5 |
| 20260905210204 | 61 | 39 | 1.0 | 3.0 | 0.00 | 0.00 | 0.00 | 75 | 1022.5 |
| 20260905205704 | 61 | 34 | 1.0 | 2.0 | 0.00 | 0.00 | 0.00 | 77 | 1022.5 |
| 20260905205204 | 60 | 36 | 0.0 | 2.0 | 0.00 | 0.00 | 0.00 | 79 | 1022.5 |
| 20260905204704 | 61 | 36 | 0.0 | 2.0 | 0.00 | 0.00 | 0.00 | 78 | 1022.5 |
| 20260905203704 | 62 | 52 | 0.0 | 2.0 | 0.00 | 0.00 | 0.00 | 79 | 1022.4 |
| 20260905203204 | 62 | 26 | 0.0 | 2.0 | 0.00 | 0.00 | 0.00 | 78 | 1022.3 |
| 20260905202704 | 62 | 26 | 1.0 | 2.0 | 0.00 | 0.00 | 0.00 | 78 | 1022.3 |
| 20260905202205 | 63 | 37 | 1.0 | 2.0 | 0.00 | 0.00 | 0.00 | 76 | 1022.3 |
| 20260905201704 | 63 | 336 | 0.0 | 2.0 | 0.00 | 0.00 | 0.00 | 75 | 1022.1 |
| 20260905201205 | 63 | 336 | 0.0 | 2.0 | 0.00 | 0.00 | 0.00 | 77 | 1022.2 |
| 20260905200704 | 63 | 15 | 1.0 | 2.0 | 0.00 | 0.00 | 0.00 | 77 | 1022.1 |
| 20260905200205 | 63 | 11 | 0.0 | 2.0 | 0.00 | 0.00 | 0.00 | 78 | 1022.1 |
| 20260905195704 | 63 | 320 | 0.0 | 2.0 | 0.00 | 0.00 | 0.00 | 78 | 1022.0 |
| 20260905195205 | 63 | 320 | 0.0 | 2.0 | 0.00 | 0.00 | 0.00 | 79 | 1022.1 |
| 20260905194704 | 63 | 34 | 0.0 | 2.0 | 0.00 | 0.00 | 0.00 | 80 | 1022.0 |
| 20260905194205 | 64 | 34 | 0.0 | 2.0 | 0.00 | 0.00 | 0.00 | 80 | 1022.0 |
| 20260905192705 | 65 | 84 | 1.0 | 3.0 | 0.00 | 0.00 | 0.00 | 79 | 1021.7 |
| 20260905192205 | 65 | 301 | 1.0 | 3.0 | 0.00 | 0.00 | 0.00 | 80 | 1021.7 |
| 20260905191720 | 65 | 36 | 1.0 | 3.0 | 0.00 | 0.00 | 0.00 | 82 | 1021.6 |
| 20260905191204 | 65 | 68 | 1.0 | 3.0 | 0.00 | 0.00 | 0.00 | 83 | 1021.6 |
| 20260905190705 | 65 | 30 | 0.0 | 3.0 | 0.00 | 0.00 | 0.00 | 83 | 1021.6 |
| 20260905190204 | 65 | 40 | 1.0 | 3.0 | 0.00 | 0.00 | 0.00 | 82 | 1021.5 |
| 20260905185705 | 65 | 36 | 1.0 | 3.0 | 0.00 | 0.00 | 0.00 | 81 | 1021.5 |
| 20260905184705 | 67 | 279 | 1.0 | 2.0 | 0.00 | 0.00 | 0.00 | 79 | 1021.4 |
| 20260905184204 | 67 | 229 | 1.0 | 2.0 | 0.00 | 0.00 | 0.00 | 79 | 1021.2 |
| 20260905183205 | 67 | 291 | 1.0 | 2.0 | 0.00 | 0.00 | 0.00 | 82 | 1021.0 |
| 20260905182704 | 67 | 291 | 1.0 | 2.0 | 0.00 | 0.00 | 0.00 | 81 | 1020.8 |
| 20260905181704 | 68 | 51 | 0.0 | 3.0 | 0.00 | 0.00 | 0.00 | 80 | 1020.6 |
| 20260905181205 | 68 | 38 | 1.0 | 3.0 | 0.00 | 0.00 | 0.00 | 80 | 1020.5 |
| 20260905180704 | 68 | 38 | 1.0 | 3.0 | 0.00 | 0.00 | 0.00 | 79 | 1020.5 |
| 20260905180205 | 68 | 300 | 1.0 | 3.0 | 0.00 | 0.00 | 0.00 | 79 | 1020.5 |
| 20260905175704 | 69 | 322 | 0.0 | 1.0 | 0.00 | 0.00 | 0.00 | 79 | 1020.5 |
| 20260905175205 | 69 | 347 | 0.0 | 2.0 | 0.00 | 0.00 | 0.00 | 78 | 1020.2 |
| 20260905174704 | 70 | 355 | 0.0 | 2.0 | 0.00 | 0.00 | 0.00 | 77 | 1020.4 |
| 20260905174205 | 70 | 66 | 1.0 | 3.0 | 0.00 | 0.00 | 0.00 | 76 | 1020.2 |
| 20260905173704 | 71 | 355 | 1.0 | 3.0 | 0.00 | 0.00 | 0.00 | 76 | 1020.0 |
| 20260905173205 | 71 | 318 | 1.0 | 4.0 | 0.00 | 0.00 | 0.00 | 75 | 1020.0 |
| 20260905172705 | 71 | 42 | 2.0 | 4.0 | 0.00 | 0.00 | 0.00 | 74 | 1019.9 |
| 20260905172220 | 72 | 284 | 2.0 | 4.0 | 0.00 | 0.00 | 0.00 | 74 | 1019.9 |
| 20260905171705 | 72 | 210 | 2.0 | 4.0 | 0.00 | 0.00 | 0.00 | 73 | 1019.8 |
| 20260905171204 | 72 | 217 | 1.0 | 3.0 | 0.00 | 0.00 | 0.00 | 73 | 1019.9 |
| 20260905170705 | 72 | 262 | 1.0 | 3.0 | 0.00 | 0.00 | 0.00 | 73 | 1019.8 |
| 20260905170204 | 72 | 302 | 1.0 | 4.0 | 0.00 | 0.00 | 0.00 | 72 | 1019.7 |
| 20260905165705 | 72 | 233 | 1.0 | 4.0 | 0.00 | 0.00 | 0.00 | 72 | 1019.6 |
| 20260905165204 | 72 | 265 | 2.0 | 4.0 | 0.00 | 0.00 | 0.00 | 72 | 1019.6 |
| 20260905164705 | 73 | 219 | 2.0 | 4.0 | 0.00 | 0.00 | 0.00 | 71 | 1019.6 |
| 20260905164204 | 73 | 246 | 2.0 | 4.0 | 0.00 | 0.00 | 0.00 | 71 | 1019.5 |
| 20260905163204 | 73 | 146 | 1.0 | 6.0 | 0.00 | 0.00 | 0.00 | 70 | 1019.6 |
| 20260905162704 | 73 | 200 | 2.0 | 6.0 | 0.00 | 0.00 | 0.00 | 70 | 1019.4 |
| 20260905162205 | 73 | 249 | 3.0 | 6.0 | 0.00 | 0.00 | 0.00 | 70 | 1019.4 |
| 20260905161705 | 73 | 174 | 3.0 | 5.0 | 0.00 | 0.00 | 0.00 | 70 | 1019.3 |
| 20260905161204 | 73 | 199 | 2.0 | 5.0 | 0.00 | 0.00 | 0.00 | 70 | 1019.3 |
| 20260905160705 | 74 | 181 | 2.0 | 5.0 | 0.00 | 0.00 | 0.00 | 70 | 1019.3 |
| 20260905155704 | 74 | 198 | 2.0 | 5.0 | 0.00 | 0.00 | 0.00 | 70 | 1019.1 |
| 20260905155204 | 74 | 188 | 3.0 | 5.0 | 0.00 | 0.00 | 0.00 | 70 | 1019.2 |
| 20260905154705 | 74 | 199 | 3.0 | 6.0 | 0.00 | 0.00 | 0.00 | 69 | 1019.2 |
| 20260905154204 | 74 | 200 | 3.0 | 6.0 | 0.00 | 0.00 | 0.00 | 69 | 1019.2 |
| 20260905153205 | 75 | 259 | 3.0 | 6.0 | 0.00 | 0.00 | 0.00 | 66 | 1019.1 |
| 20260905152704 | 76 | 188 | 2.0 | 6.0 | 0.00 | 0.00 | 0.00 | 65 | 1019.1 |
| 20260905152205 | 75 | 217 | 3.0 | 7.0 | 0.00 | 0.00 | 0.00 | 68 | 1019.1 |
| 20260905151704 | 75 | 188 | 3.0 | 8.0 | 0.00 | 0.00 | 0.00 | 67 | 1019.2 |
| 20260905150704 | 74 | 203 | 4.0 | 7.0 | 0.00 | 0.00 | 0.00 | 68 | 1019.3 |
| 20260905150205 | 74 | 135 | 3.0 | 10.0 | 0.00 | 0.00 | 0.00 | 68 | 1019.3 |
| 20260905145704 | 75 | 190 | 4.0 | 10.0 | 0.00 | 0.00 | 0.00 | 68 | 1019.3 |
| 20260905144704 | 75 | 216 | 4.0 | 10.0 | 0.00 | 0.00 | 0.00 | 67 | 1019.4 |
| 20260905144205 | 75 | 296 | 5.0 | 10.0 | 0.00 | 0.00 | 0.00 | 68 | 1019.4 |
| 20260905143704 | 75 | 202 | 5.0 | 9.0 | 0.00 | 0.00 | 0.00 | 67 | 1019.3 |
| 20260905143205 | 75 | 262 | 5.0 | 11.0 | 0.00 | 0.00 | 0.00 | 68 | 1019.3 |
| 20260905142704 | 75 | 173 | 5.0 | 11.0 | 0.00 | 0.00 | 0.00 | 68 | 1019.3 |
| 20260905141704 | 74 | 189 | 6.0 | 13.0 | 0.00 | 0.00 | 0.00 | 69 | 1019.4 |
| 20260905141205 | 74 | 239 | 6.0 | 11.0 | 0.00 | 0.00 | 0.00 | 68 | 1019.5 |
| 20260905140705 | 74 | 223 | 5.0 | 11.0 | 0.00 | 0.00 | 0.00 | 69 | 1019.5 |
| 20260905140205 | 74 | 191 | 6.0 | 11.0 | 0.00 | 0.00 | 0.00 | 67 | 1019.4 |
| 20260905135705 | 74 | 230 | 7.0 | 11.0 | 0.00 | 0.00 | 0.00 | 68 | 1019.4 |
| 20260905135204 | 74 | 216 | 6.0 | 11.0 | 0.00 | 0.00 | 0.00 | 68 | 1019.4 |
| 20260905134704 | 74 | 202 | 6.0 | 11.0 | 0.00 | 0.00 | 0.00 | 69 | 1019.4 |
| 20260905134204 | 74 | 213 | 7.0 | 9.0 | 0.00 | 0.00 | 0.00 | 67 | 1019.5 |
| 20260905133704 | 75 | 169 | 5.0 | 9.0 | 0.00 | 0.00 | 0.00 | 66 | 1019.4 |
| 20260905133204 | 76 | 203 | 4.0 | 10.0 | 0.00 | 0.00 | 0.00 | 65 | 1019.4 |
| 20260905132704 | 75 | 162 | 5.0 | 10.0 | 0.00 | 0.00 | 0.00 | 66 | 1019.4 |
| 20260905132206 | 76 | 150 | 5.0 | 10.0 | 0.00 | 0.00 | 0.00 | 65 | 1019.3 |
| 20260905131704 | 76 | 205 | 3.0 | 8.0 | 0.00 | 0.00 | 0.00 | 65 | 1019.5 |
| 20260905130229 | 75 | 191 | 4.0 | 8.0 | 0.00 | 0.00 | 0.00 | 68 | 1019.5 |
| 20260905125704 | 74 | 211 | 4.0 | 9.0 | 0.00 | 0.00 | 0.00 | 66 | 1019.5 |
| 20260905124705 | 74 | 120 | 3.0 | 9.0 | 0.00 | 0.00 | 0.00 | 68 | 1019.6 |
| 20260905124205 | 73 | 172 | 3.0 | 9.0 | 0.00 | 0.00 | 0.00 | 68 | 1019.6 |
| 20260905123704 | 72 | 167 | 4.0 | 9.0 | 0.00 | 0.00 | 0.00 | 69 | 1019.7 |
| 20260905123205 | 71 | 219 | 4.0 | 9.0 | 0.00 | 0.00 | 0.00 | 71 | 1019.8 |
| 20260905122705 | 71 | 180 | 5.0 | 9.0 | 0.00 | 0.00 | 0.00 | 71 | 1019.8 |
| 20260905121705 | 71 | 165 | 5.0 | 9.0 | 0.00 | 0.00 | 0.00 | 72 | 1019.9 |
| 20260905120705 | 71 | 144 | 4.0 | 9.0 | 0.00 | 0.00 | 0.00 | 72 | 1020.1 |
| 20260905115704 | 71 | 182 | 4.0 | 8.0 | 0.00 | 0.00 | 0.00 | 73 | 1020.0 |
| 20260905114704 | 71 | 112 | 4.0 | 10.0 | 0.00 | 0.00 | 0.00 | 74 | 1020.0 |
| 20260905114205 | 72 | 153 | 4.0 | 10.0 | 0.00 | 0.00 | 0.00 | 70 | 1019.9 |
| 20260905113704 | 72 | 152 | 5.0 | 10.0 | 0.00 | 0.00 | 0.00 | 68 | 1019.9 |
| 20260905112205 | 73 | 193 | 4.0 | 9.0 | 0.00 | 0.00 | 0.00 | 67 | 1020.0 |
| 20260905111704 | 73 | 167 | 5.0 | 9.0 | 0.00 | 0.00 | 0.00 | 66 | 1020.0 |
| 20260905111205 | 74 | 237 | 5.0 | 9.0 | 0.00 | 0.00 | 0.00 | 65 | 1019.9 |
| 20260905110704 | 75 | 228 | 4.0 | 9.0 | 0.00 | 0.00 | 0.00 | 63 | 1019.7 |
| 20260905110205 | 75 | 187 | 4.0 | 9.0 | 0.00 | 0.00 | 0.00 | 61 | 1019.7 |
| 20260905105705 | 76 | 221 | 4.0 | 8.0 | 0.00 | 0.00 | 0.00 | 61 | 1019.6 |
| 20260905105204 | 76 | 223 | 4.0 | 8.0 | 0.00 | 0.00 | 0.00 | 61 | 1019.4 |
| 20260905104704 | 76 | 211 | 4.0 | 9.0 | 0.00 | 0.00 | 0.00 | 61 | 1019.3 |
| 20260905104205 | 77 | 150 | 4.0 | 9.0 | 0.00 | 0.00 | 0.00 | 61 | 1019.2 |
| 20260905103705 | 77 | 201 | 4.0 | 10.0 | 0.00 | 0.00 | 0.00 | 60 | 1019.2 |
| 20260905103204 | 77 | 227 | 5.0 | 10.0 | 0.00 | 0.00 | 0.00 | 60 | 1019.1 |
| 20260905102705 | 77 | 220 | 5.0 | 9.0 | 0.00 | 0.00 | 0.00 | 60 | 1019.2 |
| 20260905102204 | 77 | 207 | 5.0 | 9.0 | 0.00 | 0.00 | 0.00 | 62 | 1019.3 |
| 20260905101704 | 78 | 117 | 4.0 | 9.0 | 0.00 | 0.00 | 0.00 | 59 | 1019.3 |
| 20260905100704 | 77 | 177 | 5.0 | 11.0 | 0.00 | 0.00 | 0.00 | 60 | 1019.2 |
| 20260905100205 | 78 | 242 | 5.0 | 11.0 | 0.00 | 0.00 | 0.00 | 60 | 1019.1 |
| 20260905095704 | 78 | 146 | 5.0 | 11.0 | 0.00 | 0.00 | 0.00 | 60 | 1019.4 |
| 20260905094704 | 78 | 154 | 5.0 | 9.0 | 0.00 | 0.00 | 0.00 | 61 | 1019.3 |
| 20260905094205 | 78 | 231 | 4.0 | 7.0 | 0.00 | 0.00 | 0.00 | 63 | 1019.3 |
| 20260905093704 | 78 | 208 | 3.0 | 8.0 | 0.00 | 0.00 | 0.00 | 64 | 1019.3 |
| 20260905093205 | 77 | 210 | 3.0 | 8.0 | 0.00 | 0.00 | 0.00 | 62 | 1019.2 |
| 20260905092704 | 77 | 232 | 4.0 | 8.0 | 0.00 | 0.00 | 0.00 | 63 | 1019.1 |
| 20260905092205 | 76 | 268 | 5.0 | 8.0 | 0.00 | 0.00 | 0.00 | 63 | 1019.1 |
| 20260905091705 | 76 | 226 | 4.0 | 7.0 | 0.00 | 0.00 | 0.00 | 64 | 1019.1 |
| 20260905091204 | 76 | 257 | 3.0 | 6.0 | 0.00 | 0.00 | 0.00 | 64 | 1019.0 |
| 20260905090705 | 77 | 306 | 2.0 | 6.0 | 0.00 | 0.00 | 0.00 | 62 | 1018.9 |
| 20260905090204 | 78 | 328 | 2.0 | 7.0 | 0.00 | 0.00 | 0.00 | 64 | 1018.7 |
| 20260905085204 | 75 | 276 | 4.0 | 11.0 | 0.00 | 0.00 | 0.00 | 67 | 1018.6 |
| 20260905084705 | 75 | 68 | 5.0 | 11.0 | 0.00 | 0.00 | 0.00 | 66 | 1018.5 |
| 20260905084204 | 74 | 87 | 4.0 | 7.0 | 0.00 | 0.00 | 0.00 | 68 | 1018.4 |
| 20260905083704 | 72 | 92 | 2.0 | 5.0 | 0.00 | 0.00 | 0.00 | 71 | 1018.4 |
| 20260905083205 | 72 | 67 | 1.0 | 4.0 | 0.00 | 0.00 | 0.00 | 70 | 1018.4 |
| 20260905082206 | 71 | 54 | 2.0 | 4.0 | 0.00 | 0.00 | 0.00 | 74 | 1018.2 |
| 20260905081704 | 70 | 65 | 1.0 | 2.0 | 0.00 | 0.00 | 0.00 | 75 | 1018.3 |
| 20260905080705 | 69 | 49 | 0.0 | 2.0 | 0.00 | 0.00 | 0.00 | 79 | 1018.2 |
| 20260905080223 | 69 | 49 | 0.0 | 2.0 | 0.00 | 0.00 | 0.00 | 77 | 1018.2 |
| 20260905075705 | 69 | 49 | 0.0 | 2.0 | 0.00 | 0.00 | 0.00 | 78 | 1018.1 |
| 20260905075205 | 69 | 49 | 0.0 | 3.0 | 0.00 | 0.00 | 0.00 | 77 | 1018.0 |
| 20260905074204 | 69 | 49 | 1.0 | 4.0 | 0.00 | 0.00 | 0.00 | 76 | 1017.5 |
| 20260905073204 | 69 | 337 | 1.0 | 5.0 | 0.00 | 0.00 | 0.00 | 75 | 1017.3 |
| 20260905072705 | 69 | 34 | 2.0 | 5.0 | 0.00 | 0.00 | 0.00 | 75 | 1017.2 |
| 20260905071705 | 69 | 56 | 3.0 | 6.0 | 0.00 | 0.00 | 0.00 | 74 | 1017.1 |
| 20260905071204 | 69 | 41 | 3.0 | 6.0 | 0.00 | 0.00 | 0.00 | 74 | 1017.0 |
| 20260905070205 | 69 | 48 | 3.0 | 4.0 | 0.00 | 0.00 | 0.00 | 75 | 1017.0 |
| 20260905065233 | 68 | 34 | 2.0 | 10.0 | 0.00 | 0.00 | 0.00 | 76 | 1016.8 |
| 20260905064704 | 68 | 5 | 4.0 | 10.0 | 0.00 | 0.00 | 0.00 | 76 | 1016.7 |
| 20260905064205 | 68 | 51 | 4.0 | 8.0 | 0.00 | 0.00 | 0.00 | 76 | 1016.7 |
| 20260905063205 | 68 | 61 | 4.0 | 7.0 | 0.00 | 0.00 | 0.00 | 75 | 1016.5 |
| 20260905062705 | 69 | 51 | 4.0 | 7.0 | 0.00 | 0.00 | 0.00 | 76 | 1016.5 |
| 20260905062205 | 68 | 50 | 4.0 | 7.0 | 0.00 | 0.00 | 0.00 | 76 | 1016.5 |
| 20260905061205 | 68 | 58 | 3.0 | 7.0 | 0.00 | 0.00 | 0.00 | 76 | 1016.5 |
| 20260905060719 | 67 | 53 | 4.0 | 7.0 | 0.00 | 0.00 | 0.00 | 77 | 1016.6 |
| 20260905060204 | 67 | 30 | 3.0 | 7.0 | 0.00 | 0.00 | 0.00 | 79 | 1016.6 |
| 20260905055705 | 66 | 68 | 1.0 | 1.0 | 0.00 | 0.00 | 0.00 | 80 | 1016.4 |
| 20260905055204 | 66 | 22 | 0.0 | 3.0 | 0.00 | 0.00 | 0.00 | 81 | 1016.4 |
| 20260905054704 | 66 | 5 | 1.0 | 7.0 | 0.00 | 0.00 | 0.00 | 80 | 1016.4 |
| 20260905054205 | 67 | 9 | 3.0 | 7.0 | 0.00 | 0.00 | 0.00 | 79 | 1016.2 |
| 20260905053704 | 67 | 58 | 4.0 | 7.0 | 0.00 | 0.00 | 0.00 | 79 | 1016.1 |
| 20260905052704 | 66 | 74 | 4.0 | 5.0 | 0.00 | 0.00 | 0.00 | 79 | 1016.0 |
| 20260905052205 | 66 | 41 | 3.0 | 6.0 | 0.00 | 0.00 | 0.00 | 81 | 1016.0 |
| 20260905051704 | 65 | 57 | 2.0 | 6.0 | 0.00 | 0.00 | 0.00 | 82 | 1016.0 |
| 20260905051205 | 64 | 34 | 1.0 | 2.0 | 0.00 | 0.00 | 0.00 | 84 | 1015.8 |
| 20260905050705 | 64 | 133 | 0.0 | 2.0 | 0.00 | 0.00 | 0.00 | 84 | 1015.8 |
| 20260905050205 | 64 | 11 | 0.0 | 2.0 | 0.00 | 0.00 | 0.00 | 84 | 1015.6 |
| 20260905045205 | 63 | 315 | 1.0 | 2.0 | 0.00 | 0.00 | 0.00 | 84 | 1015.6 |
| 20260905044705 | 64 | 44 | 1.0 | 2.0 | 0.00 | 0.00 | 0.00 | 84 | 1015.5 |
| 20260905044204 | 63 | 47 | 0.0 | 2.0 | 0.00 | 0.00 | 0.00 | 85 | 1015.4 |
| 20260905043204 | 63 | 0 | 0.0 | 2.0 | 0.00 | 0.00 | 0.00 | 85 | 1015.2 |
| 20260905042204 | 63 | 25 | 0.0 | 3.0 | 0.00 | 0.00 | 0.00 | 85 | 1015.2 |
| 20260905041704 | 63 | 27 | 1.0 | 3.0 | 0.00 | 0.00 | 0.00 | 85 | 1015.1 |
| 20260905041205 | 63 | 63 | 1.0 | 3.0 | 0.00 | 0.00 | 0.00 | 86 | 1015.1 |
| 20260905040705 | 62 | 51 | 0.0 | 1.0 | 0.00 | 0.00 | 0.00 | 86 | 1015.1 |
| 20260905035704 | 63 | 13 | 0.0 | 3.0 | 0.00 | 0.00 | 0.00 | 85 | 1015.0 |
| 20260905035205 | 63 | 13 | 1.0 | 3.0 | 0.00 | 0.00 | 0.00 | 85 | 1014.9 |
| 20260905034704 | 63 | 65 | 1.0 | 2.0 | 0.00 | 0.00 | 0.00 | 84 | 1014.8 |
| 20260905034205 | 63 | 34 | 0.0 | 5.0 | 0.00 | 0.00 | 0.00 | 84 | 1014.8 |
| 20260905033705 | 63 | 40 | 1.0 | 5.0 | 0.00 | 0.00 | 0.00 | 84 | 1014.8 |
| 20260905033204 | 64 | 309 | 3.0 | 5.0 | 0.00 | 0.00 | 0.00 | 83 | 1014.8 |
| 20260905032705 | 64 | 71 | 3.0 | 5.0 | 0.00 | 0.00 | 0.00 | 83 | 1014.7 |
| 20260905031704 | 64 | 59 | 2.0 | 5.0 | 0.00 | 0.00 | 0.00 | 83 | 1014.6 |
| 20260905031205 | 64 | 42 | 3.0 | 5.0 | 0.00 | 0.00 | 0.00 | 83 | 1014.5 |
| 20260905030704 | 64 | 49 | 2.0 | 5.0 | 0.00 | 0.00 | 0.00 | 84 | 1014.5 |
| 20260905030212 | 64 | 41 | 2.0 | 5.0 | 0.00 | 0.00 | 0.00 | 83 | 1014.5 |
| 20260905025705 | 64 | 57 | 2.0 | 4.0 | 0.00 | 0.00 | 0.00 | 84 | 1014.4 |
| 20260905025205 | 64 | 55 | 1.0 | 3.0 | 0.00 | 0.00 | 0.00 | 84 | 1014.5 |
| 20260905024705 | 64 | 47 | 1.0 | 3.0 | 0.00 | 0.00 | 0.00 | 84 | 1014.4 |
| 20260905023705 | 63 | 30 | 1.0 | 4.0 | 0.00 | 0.00 | 0.00 | 85 | 1014.3 |
| 20260905022705 | 62 | 65 | 1.0 | 3.0 | 0.00 | 0.00 | 0.00 | 86 | 1014.4 |
| 20260905022205 | 62 | 299 | 1.0 | 3.0 | 0.00 | 0.00 | 0.00 | 86 | 1014.4 |
| 20260905021705 | 62 | 299 | 1.0 | 3.0 | 0.00 | 0.00 | 0.00 | 86 | 1014.4 |
| 20260905020204 | 62 | 70 | 0.0 | 3.0 | 0.00 | 0.00 | 0.00 | 86 | 1014.3 |
| 20260905015704 | 62 | 317 | 1.0 | 3.0 | 0.00 | 0.00 | 0.00 | 86 | 1014.3 |
| 20260905015204 | 62 | 315 | 0.0 | 2.0 | 0.00 | 0.00 | 0.00 | 86 | 1014.4 |
| 20260905014704 | 62 | 49 | 0.0 | 2.0 | 0.00 | 0.00 | 0.00 | 86 | 1014.5 |